• In Hungary
  • List of Countries
  • For 7 days
  • Water Temperature
  • Satellite Maps
  • Weather Map
  • News
  • Weather Widgets
  • user-avatar
    Login

    Hourly Weather Puerto Castilla

    Today, 17 December, Sunday

    Time Temperature Precipitation Wind Pressure Humidity
    00:00 +22°C° 0 mm 3 mps 762 mmHg 98%
    01:00 +22°C° 0.1 mm 3 mps 762 mmHg 98%
    02:00 +22°C° 0.1 mm 3 mps 761 mmHg 97%
    03:00 +22°C° 0.1 mm 3 mps 761 mmHg 97%
    04:00 +22°C° 0.2 mm 3 mps 761 mmHg 97%
    05:00 +22°C° 0.2 mm 3 mps 762 mmHg 96%
    06:00 +22°C° 0 mm 3 mps 762 mmHg 95%
    07:00 +25°C° 0.2 mm 3 mps 762 mmHg 90%
    08:00 +27°C° 0.2 mm 3 mps 762 mmHg 84%
    09:00 +29°C° 0.2 mm 3 mps 762 mmHg 79%
    10:00 +29°C° 0.1 mm 3 mps 762 mmHg 76%
    11:00 +30°C° 0.1 mm 4 mps 762 mmHg 73%
    12:00 +32°C° 0.1 mm 4 mps 762 mmHg 70%
    13:00 +32°C° 0.1 mm 5 mps 761 mmHg 72%
    14:00 +32°C° 0.1 mm 5 mps 760 mmHg 75%
    15:00 +30°C° 0.1 mm 5 mps 760 mmHg 77%
    16:00 +29°C° 0.1 mm 5 mps 760 mmHg 84%
    17:00 +27°C° 0.1 mm 5 mps 760 mmHg 91%
    18:00 +26°C° 0.1 mm 5 mps 760 mmHg 98%
    19:00 +26°C° 0 mm 4 mps 761 mmHg 98%
    20:00 +25°C° 0 mm 4 mps 761 mmHg 99%
    21:00 +25°C° 0 mm 4 mps 762 mmHg 99%
    22:00 +25°C° 0.2 mm 4 mps 761 mmHg 99%
    23:00 +25°C° 0.2 mm 4 mps 761 mmHg 99%

    Tomorrow, 18 December, Monday

    Time Temperature Precipitation Wind Pressure Humidity
    00:00 +25°C° 0.2 mm 4 mps 761 mmHg 99%
    01:00 +25°C° 0.3 mm 4 mps 761 mmHg 98%
    02:00 +25°C° 0.3 mm 4 mps 761 mmHg 98%
    03:00 +25°C° 0.3 mm 4 mps 760 mmHg 98%
    04:00 +25°C° 0.3 mm 4 mps 761 mmHg 98%
    05:00 +25°C° 0.3 mm 4 mps 761 mmHg 98%
    06:00 +26°C° 0.3 mm 4 mps 761 mmHg 98%
    07:00 +27°C° 0.3 mm 5 mps 762 mmHg 96%
    08:00 +28°C° 0.3 mm 5 mps 762 mmHg 93%
    09:00 +28°C° 0.3 mm 5 mps 763 mmHg 91%
    10:00 +30°C° 0.2 mm 5 mps 762 mmHg 84%
    11:00 +32°C° 0.2 mm 5 mps 762 mmHg 76%
    12:00 +33°C° 0.2 mm 5 mps 762 mmHg 69%
    13:00 +32°C° 0.5 mm 6 mps 761 mmHg 77%
    14:00 +30°C° 0.5 mm 6 mps 761 mmHg 85%
    15:00 +29°C° 0.5 mm 6 mps 760 mmHg 93%
    16:00 +28°C° 0.1 mm 6 mps 760 mmHg 95%
    17:00 +27°C° 0.1 mm 5 mps 761 mmHg 97%
    18:00 +26°C° 0.1 mm 5 mps 761 mmHg 99%
    19:00 +26°C° 0 mm 5 mps 761 mmHg 99%
    20:00 +26°C° 0 mm 5 mps 762 mmHg 99%
    21:00 +25°C° 0 mm 5 mps 762 mmHg 99%
    22:00 +25°C° 0 mm 4 mps 762 mmHg 99%
    23:00 +25°C° 0 mm 4 mps 762 mmHg 99%

    Day after tomorrow, 19 December, Tuesday

    Time Temperature Precipitation Wind Pressure Humidity
    00:00 +25°C° 0 mm 3 mps 762 mmHg 99%
    01:00 +25°C° 0.1 mm 3 mps 762 mmHg 99%
    02:00 +25°C° 0.1 mm 3 mps 762 mmHg 99%
    03:00 +25°C° 0.1 mm 2 mps 761 mmHg 99%
    04:00 +25°C° 0.2 mm 3 mps 761 mmHg 99%
    05:00 +25°C° 0.2 mm 3 mps 762 mmHg 98%
    06:00 +25°C° 0.2 mm 3 mps 762 mmHg 98%
    07:00 +26°C° 0.1 mm 4 mps 762 mmHg 97%
    08:00 +27°C° 0.1 mm 4 mps 763 mmHg 96%
    09:00 +27°C° 0.1 mm 5 mps 763 mmHg 95%
    10:00 +28°C° 0.2 mm 5 mps 763 mmHg 91%
    11:00 +29°C° 0.2 mm 5 mps 762 mmHg 87%
    12:00 +30°C° 0.2 mm 5 mps 762 mmHg 84%
    13:00 +30°C° 0.1 mm 5 mps 761 mmHg 82%
    14:00 +32°C° 0.1 mm 6 mps 760 mmHg 81%
    15:00 +32°C° 0.1 mm 6 mps 760 mmHg 79%
    16:00 +29°C° 0.1 mm 6 mps 760 mmHg 86%
    17:00 +28°C° 0.1 mm 6 mps 760 mmHg 92%
    18:00 +27°C° 0.1 mm 6 mps 761 mmHg 98%
    19:00 +26°C° 0 mm 5 mps 761 mmHg 99%
    20:00 +26°C° 0 mm 5 mps 762 mmHg 99%
    21:00 +26°C° 0 mm 5 mps 762 mmHg 99%
    22:00 +26°C° 0.1 mm 5 mps 762 mmHg 99%
    23:00 +25°C° 0.1 mm 4 mps 762 mmHg 99%

    20 December, Wednesday

    Time Temperature Precipitation Wind Pressure Humidity
    00:00 +25°C° 0.1 mm 4 mps 762 mmHg 99%
    01:00 +25°C° 0.1 mm 4 mps 761 mmHg 99%
    02:00 +25°C° 0.1 mm 3 mps 761 mmHg 99%
    03:00 +25°C° 0.1 mm 3 mps 760 mmHg 99%
    04:00 +25°C° 0.1 mm 3 mps 761 mmHg 99%
    05:00 +25°C° 0.1 mm 3 mps 761 mmHg 99%
    06:00 +25°C° 0.1 mm 3 mps 761 mmHg 99%
    07:00 +26°C° 0.2 mm 2 mps 762 mmHg 97%
    08:00 +27°C° 0.2 mm 2 mps 762 mmHg 95%
    09:00 +27°C° 0.2 mm 2 mps 763 mmHg 93%
    10:00 +28°C° 0.5 mm 2 mps 762 mmHg 92%
    11:00 +29°C° 0.5 mm 3 mps 762 mmHg 91%
    12:00 +30°C° 0.5 mm 4 mps 761 mmHg 90%
    13:00 +30°C° 0.4 mm 4 mps 760 mmHg 91%
    14:00 +29°C° 0.4 mm 4 mps 760 mmHg 91%
    15:00 +29°C° 0.4 mm 4 mps 759 mmHg 91%
    16:00 +28°C° 0.3 mm 4 mps 760 mmHg 94%
    17:00 +27°C° 0.3 mm 4 mps 760 mmHg 96%
    18:00 +26°C° 0.3 mm 4 mps 760 mmHg 99%
    19:00 +26°C° 0.2 mm 4 mps 761 mmHg 99%
    20:00 +26°C° 0.2 mm 4 mps 761 mmHg 99%
    21:00 +25°C° 0.2 mm 3 mps 761 mmHg 99%
    22:00 +25°C° 0 mm 3 mps 761 mmHg 99%
    23:00 +25°C° 0 mm 3 mps 761 mmHg 99%

    21 December, Thursday

    Time Temperature Precipitation Wind Pressure Humidity
    00:00 +25°C° 0 mm 3 mps 760 mmHg 99%
    01:00 +25°C° 0 mm 2 mps 760 mmHg 99%
    02:00 +24°C° 0 mm 2 mps 760 mmHg 99%
    03:00 +24°C° 0 mm 2 mps 760 mmHg 99%
    04:00 +24°C° 0.1 mm 2 mps 760 mmHg 99%
    05:00 +24°C° 0.1 mm 2 mps 760 mmHg 99%
    06:00 +24°C° 0.1 mm 2 mps 761 mmHg 99%
    07:00 +26°C° 0.1 mm 2 mps 761 mmHg 93%
    08:00 +28°C° 0.1 mm 2 mps 761 mmHg 86%
    09:00 +30°C° 0.1 mm 2 mps 762 mmHg 80%
    10:00 +30°C° 0 mm 2 mps 761 mmHg 73%
    11:00 +31°C° 0 mm 2 mps 761 mmHg 67%
    12:00 +33°C° 0 mm 3 mps 760 mmHg 60%
    13:00 +33°C° 0.2 mm 3 mps 760 mmHg 66%
    14:00 +32°C° 0.2 mm 4 mps 759 mmHg 73%
    15:00 +30°C° 0.2 mm 4 mps 759 mmHg 79%
    16:00 +29°C° 0.4 mm 4 mps 759 mmHg 86%
    17:00 +27°C° 0.4 mm 4 mps 759 mmHg 92%
    18:00 +26°C° 0.4 mm 4 mps 760 mmHg 99%
    19:00 +26°C° 0.2 mm 4 mps 760 mmHg 99%
    20:00 +25°C° 0.2 mm 4 mps 761 mmHg 99%
    21:00 +25°C° 0.2 mm 4 mps 761 mmHg 99%
    22:00 +25°C° 0.1 mm 4 mps 761 mmHg 99%
    23:00 +25°C° 0.1 mm 4 mps 761 mmHg 99%

    22 December, Friday

    Time Temperature Precipitation Wind Pressure Humidity
    00:00 +25°C° 0.1 mm 4 mps 760 mmHg 98%
    01:00 +23°C° 0.1 mm 4 mps 760 mmHg 99%
    02:00 +24°C° 0.1 mm 3 mps 760 mmHg 99%
    03:00 +24°C° 0.1 mm 3 mps 759 mmHg 99%
    04:00 +22°C° 0 mm 3 mps 760 mmHg 99%
    05:00 +22°C° 0 mm 3 mps 760 mmHg 99%
    06:00 +22°C° 0 mm 3 mps 761 mmHg 98%
    07:00 +25°C° 0.1 mm 3 mps 761 mmHg 92%
    08:00 +27°C° 0.1 mm 3 mps 761 mmHg 86%
    09:00 +29°C° 0.1 mm 3 mps 762 mmHg 80%
    10:00 +30°C° 0 mm 4 mps 762 mmHg 74%
    11:00 +32°C° 0 mm 4 mps 761 mmHg 69%
    12:00 +33°C° 0 mm 5 mps 761 mmHg 63%
    13:00 +32°C° 0.7 mm 5 mps 760 mmHg 69%
    14:00 +32°C° 0.7 mm 5 mps 760 mmHg 75%
    15:00 +30°C° 0.7 mm 5 mps 760 mmHg 81%
    16:00 +29°C° 0.3 mm 5 mps 760 mmHg 87%
    17:00 +27°C° 0.3 mm 5 mps 760 mmHg 93%
    18:00 +26°C° 0.3 mm 5 mps 761 mmHg 98%
    19:00 +26°C° 0.1 mm 5 mps 761 mmHg 99%
    20:00 +26°C° 0.1 mm 5 mps 762 mmHg 99%
    21:00 +25°C° 0.1 mm 4 mps 762 mmHg 99%
    22:00 +25°C° 0.1 mm 4 mps 762 mmHg 99%
    23:00 +25°C° 0.1 mm 4 mps 761 mmHg 99%
    Show more